map of PAH home
PAH - Airport
Location
City:  Paducah, Kentucky, United States
Name:Barkley Regional
ICAO:KPAH
IATA:PAH
FAA LID:PAH

Details
Type:Airport (Part 139 Class I)
Use:Public/Civil
Latitude:3703'37"N (37.060288)
Longitude:8846'23"W (-88.772957)
Datum:WGS 1984
Elevation:410 ft (125 m)
Variation:2.47W (WMM2015v2 magnetic declination)
-0.06 annual change
Runways:2
Longest:6500 × 150 ft (1981 × 45.5 m), paved

Time
Time Zone:UTC-6 (DST-5)
Local Time:

Weather
METAR:KPAH 041353Z 21007KT 10SM OVC011 14/12 A2985 RMK AO2 CIG 009V013 SLP105 T01440122
TAF:KPAH 041212Z 0412/0512 18012KT P6SM VCSH BKN015
TEMPO 0414/0418 SCT015 BKN025
FM041800 21013KT P6SM VCSH OVC008
FM050600 34008KT P6SM OVC008

Related Locations
Nearby:
Farthest:YAUG: 11088 mi / 17844 km
Augusta [Augusta Airport], WA, AU

Find:

   beyond  
but within

Other Information
Maps:
Delays:
NOTAMs:
Links:
Sources:

  
  • flag of United States
  • flag of Kentucky
  

Airport Diagram

Airport diagram for PAH

Airport diagram PDF from FAA

Sectional Chart

Flight Planning
at skyvector.com

Satellite Image

Google Maps Satellite view

 

Copyright © 2004-2019 Karl L. Swartz. All rights reserved.
The Great Circle Mapper name and logo are trademarks of the Great Circle Mapper.
All other trademarks mentioned herein belong to their respective owners.
Please see credits for attibutions and further copyright information.

  Follow gcmap on Facebook Follow gcmap on Twitter GCmap on LinkedIn

hCard Microformat

Geo Microformat